F5ZQC-13 Weather Reports


Display with metric or nautical units.
time (UTC)temp
F
wind
direction
speed
MPH
gust
MPH
rain 1hr
in
rain 24hr
in
rain mn
in
humidity
%
barometer
mb
20260902024038 -31 292 4.0 4.0 0.00 0.00 0.00 43 5318.5
20260902023836 -19 315 1.0 3.0 0.00 0.00 0.00 43 567.2
20260902023634 715 315 2.0 4.0 0.00 0.00 0.00 43 1799.4
20260902023231 -17 292 5.0 5.0 0.00 0.00 0.00 42 5318.5
20260902023029 -84 292 5.0 5.0 0.00 0.00 0.00 43 5318.5
20260902022826 715 292 4.0 6.0 0.00 0.00 0.00 43 4420.8
20260902022624 715 292 6.0 6.0 0.00 0.00 0.00 42 4420.6
20260902022220 262 292 5.0 7.0 0.00 0.00 0.00 42 5318.5
20260902021820 814 292 2.0 4.0 0.00 0.00 0.00 42 5318.5
20260902021613 715 292 1.0 4.0 0.00 0.00 0.00 42 1799.4
20260902021411 136 292 3.0 4.0 0.00 0.00 0.00 42 5318.5
20260902021010 191 270 1.0 3.0 0.00 0.00 0.00 42 5318.5
20260902020805 715 315 0.0 4.0 0.00 0.00 0.00 42 488.7
20260902020604 247 292 3.0 4.0 0.00 0.00 0.00 42 5318.5
20260902020401 -31 292 4.0 4.0 0.00 0.00 0.00 41 5318.5
20260902020159 302 292 3.0 4.0 0.00 0.00 0.00 41 5318.5
20260902015757 -29 337 4.0 4.0 0.00 0.00 0.00 42 5318.5
20260902015553 -20 337 3.0 3.0 0.00 0.00 0.00 42 5318.5
20260902015353 -24 337 2.0 3.0 0.00 0.00 0.00 42 5318.5
20260902015150 32 292 2.0 3.0 0.00 0.00 0.00 42 5318.5
20260902014744 -93 292 3.0 4.0 0.00 0.00 0.00 41 5318.5
20260902014542 -13 292 3.0 3.0 0.00 0.00 0.00 42 5318.5
20260902014340 -38 292 1.0 1.0 0.00 0.00 0.00 41 5318.5
20260902013330 166 292 2.0 4.0 0.00 0.00 0.00 41 5318.5
20260902012724 182 315 4.0 5.0 0.00 0.00 0.00 41 5318.5
20260902012158 -32 337 4.0 5.0 0.00 0.00 0.00 41 5321.1
20260902012119 -32 337 4.0 5.0 0.00 0.00 0.00 41 5321.1
20260902011919 293 337 5.0 5.0 0.00 0.00 0.00 40 5318.5
20260902011713 -26 337 4.0 4.0 0.00 0.00 0.00 41 5318.5
20260902011513 715 337 2.0 3.0 0.00 0.00 0.00 41 1799.1
20260902011309 -21 337 3.0 4.0 0.00 0.00 0.00 40 5318.5
20260902010703 715 292 4.0 4.0 0.00 0.00 0.00 41 4420.8
20260902010300 715 337 3.0 4.0 0.00 0.00 0.00 40 4420.6
20260902005855 -86 292 4.0 5.0 0.00 0.00 0.00 40 5318.5
20260902005653 78 292 4.0 4.0 0.00 0.00 0.00 41 5318.5
20260902005451 715 292 3.0 4.0 0.00 0.00 0.00 40 4420.8
20260902005248 630 292 3.0 3.0 0.00 0.00 0.00 40 5318.5
20260902005047 157 292 1.0 5.0 0.00 0.00 0.00 40 5318.5
20260902004844 118 270 1.0 5.0 0.00 0.00 0.00 40 5318.5
20260902004440 715 337 3.0 3.0 0.00 0.00 0.00 40 1799.4
20260902004238 267 292 3.0 4.0 0.00 0.00 0.00 40 5318.5
20260902004037 228 292 3.0 4.0 0.00 0.00 0.00 39 5318.5
20260902003835 322 292 4.0 4.0 0.00 0.00 0.00 39 5318.5
20260902003632 715 337 3.0 3.0 0.00 0.00 0.00 40 4421.0
20260902003433 -27 337 2.0 3.0 0.00 0.00 0.00 40 5318.5
20260902003232 -31 337 2.0 2.0 0.00 0.00 0.00 40 5318.5
20260902003026 715 337 2.0 2.0 0.00 0.00 0.00 39 1799.4
20260902002826 -26 337 1.0 2.0 0.00 0.00 0.00 39 5318.5
20260902002622 -16 337 2.0 3.0 0.00 0.00 0.00 39 5318.5
20260902001813 -56 337 2.0 4.0 0.00 0.00 0.00 39 5318.5
20260902001611 -95 337 3.0 4.0 0.00 0.00 0.00 39 5318.5
20260902001409 32 337 4.0 4.0 0.00 0.00 0.00 39 5320.2
20260902001207 927 337 3.0 4.0 0.00 0.00 0.00 39 5318.5
20260902001019 538 337 3.0 4.0 0.00 0.00 0.00 39 5318.5
20260902000803 147 337 3.0 4.0 0.00 0.00 0.00 39 5318.5
20260902000505 203 337 3.0 4.0 0.00 0.00 0.00 39 5318.5
20260902000359 203 337 3.0 4.0 0.00 0.00 0.00 39 5318.5
20260901235348 274 337 3.0 3.0 0.00 0.00 0.00 39 5318.5
20260901234747 -23 292 3.0 4.0 0.00 0.00 0.00 38 5318.5
20260901234540 715 337 3.0 3.0 0.00 0.00 0.00 38 4420.7
20260901234341 -17 337 3.0 5.0 0.00 0.00 0.00 39 4010.3
20260901233935 -12 292 3.0 5.0 0.00 0.00 0.00 38 5318.5
20260901233733 -15 292 4.0 5.0 0.00 0.00 0.00 38 5318.5
20260901233530 -65 292 4.0 4.0 0.00 0.00 0.00 38 5318.5
20260901233328 715 292 4.0 5.0 0.00 0.00 0.00 37 1799.4
20260901232520 138 337 3.0 3.0 0.00 0.00 0.00 38 5318.5
20260901232317 998 292 2.0 4.0 0.00 0.00 0.00 38 5318.5
20260901231914 -31 292 4.0 4.0 0.00 0.00 0.00 38 5318.5
20260901231711 715 337 3.0 3.0 0.00 0.00 0.00 38 4420.8
20260901231307 304 292 3.0 4.0 0.00 0.00 0.00 37 5318.5
20260901231106 265 315 3.0 4.0 0.00 0.00 0.00 36 5318.5
20260901230904 -29 292 4.0 5.0 0.00 0.00 0.00 37 5318.5
20260901230701 320 292 4.0 5.0 0.00 0.00 0.00 36 5318.5
20260901230257 -27 337 3.0 4.0 0.00 0.00 0.00 37 5318.5
20260901225853 -22 292 4.0 5.0 0.00 0.00 0.00 36 5318.5
20260901225448 -16 315 4.0 4.0 0.00 0.00 0.00 36 5318.5
20260901225044 -11 337 3.0 4.0 0.00 0.00 0.00 36 5318.5
20260901224843 -19 315 3.0 4.0 0.00 0.00 0.00 36 5318.5
20260901224640 743 337 3.0 4.0 0.00 0.00 0.00 36 5318.5
20260901224442 354 225 3.0 3.0 0.00 0.00 0.00 36 5318.5
20260901224236 129 225 3.0 3.0 0.00 0.00 0.00 37 5318.5
20260901223428 715 315 0.0 0.0 0.00 0.00 0.00 37 1799.1
20260901223227 201 315 0.0 0.0 0.00 0.00 0.00 36 5318.5
20260901222822 715 315 0.0 1.0 0.00 0.00 0.00 36 1799.4
20260901222621 715 315 0.0 1.0 0.00 0.00 0.00 36 4420.6
20260901222215 715 315 1.0 1.0 0.00 0.00 0.00 36 4420.8
20260901222013 -28 315 1.0 1.0 0.00 0.00 0.00 36 5318.5
20260901221812 -19 315 1.0 1.0 0.00 0.00 0.00 36 5318.5
20260901221609 -23 315 1.0 2.0 0.00 0.00 0.00 36 5318.5
20260901221003 715 315 2.0 3.0 0.00 0.00 0.00 35 1799.3
20260901220801 -12 292 3.0 3.0 0.00 0.00 0.00 35 5318.5
20260901220600 -31 315 1.0 2.0 0.00 0.00 0.00 35 5318.5
20260901220357 -67 315 1.0 1.0 0.00 0.00 0.00 35 4010.3
20260901215549 715 292 1.0 2.0 0.00 0.00 0.00 35 1799.3
20260901215346 715 292 1.0 3.0 0.00 0.00 0.00 34 4420.8
20260901215219 230 292 2.0 3.0 0.00 0.00 0.00 34 5318.5
20260901215144 230 292 2.0 3.0 0.00 0.00 0.00 34 5318.5
20260901214942 191 292 3.0 3.0 0.00 0.00 0.00 34 5318.5
20260901214538 715 337 2.0 4.0 0.00 0.00 0.00 34 1799.4
20260901214336 -31 292 3.0 4.0 0.00 0.00 0.00 34 5318.5
20260901214135 49 292 3.0 4.0 0.00 0.00 0.00 34 5318.5
20260901213731 -29 292 4.0 5.0 0.00 0.00 0.00 33 5318.5
20260901213528 -20 337 3.0 5.0 0.00 0.00 0.00 34 5318.5
20260901213126 -14 337 5.0 6.0 0.00 0.00 0.00 33 5318.5
20260901212923 -18 337 3.0 5.0 0.00 0.00 0.00 33 5318.5
20260901212720 -93 337 4.0 5.0 0.00 0.00 0.00 33 5318.5
20260901212315 -38 337 4.0 5.0 0.00 0.00 0.00 33 5318.5
20260901211912 170 337 3.0 4.0 0.00 0.00 0.00 34 5321.1
20260901211710 111 337 4.0 5.0 0.00 0.00 0.00 33 5318.5
20260901210904 221 337 1.0 4.0 0.00 0.00 0.00 33 5318.5
20260901210659 182 337 2.0 4.0 0.00 0.00 0.00 33 5318.5
20260901210254 715 315 4.0 5.0 0.00 0.00 0.00 33 1799.4
20260901205850 -31 337 3.0 3.0 0.00 0.00 0.00 33 5318.5
20260901205649 715 337 3.0 3.0 0.00 0.00 0.00 32 1799.4
20260901205043 -25 270 1.0 2.0 0.00 0.00 0.00 33 5318.5
20260901204843 -15 292 1.0 3.0 0.00 0.00 0.00 32 5318.5
20260901204235 -14 337 2.0 3.0 0.00 0.00 0.00 32 5318.5
20260901204032 -47 337 3.0 3.0 0.00 0.00 0.00 32 5318.5
20260901203830 -86 292 2.0 3.0 0.00 0.00 0.00 32 5318.5
20260901203629 78 292 2.0 3.0 0.00 0.00 0.00 32 5318.5
20260901203427 101 337 2.0 3.0 0.00 0.00 0.00 32 5318.5
20260901203223 630 337 2.0 3.0 0.00 0.00 0.00 31 5318.5
20260901203023 157 292 2.0 3.0 0.00 0.00 0.00 31 5318.5
20260901202415 715 292 3.0 3.0 0.00 0.00 0.00 31 1799.4
20260901202213 267 337 3.0 3.0 0.00 0.00 0.00 31 5318.5
20260901202011 715 337 2.0 3.0 0.00 0.00 0.00 31 4420.6
20260901201809 322 337 3.0 3.0 0.00 0.00 0.00 31 5318.5
20260901201203 715 337 3.0 3.0 0.00 0.00 0.00 31 1799.3
20260901200759 -26 337 3.0 4.0 0.00 0.00 0.00 30 5318.5
20260901200349 -22 337 3.0 4.0 0.00 0.00 0.00 31 5318.5
20260901200147 715 292 2.0 4.0 0.00 0.00 0.00 31 1799.3
20260901195542 -11 292 3.0 4.0 0.00 0.00 0.00 31 5318.5
20260901195339 -24 292 3.0 4.0 0.00 0.00 0.00 31 5320.2
20260901194532 860 337 4.0 4.0 0.00 0.00 0.00 29 5318.5
20260901194329 715 337 3.0 4.0 0.00 0.00 0.00 30 4480.2
20260901194128 141 337 4.0 4.0 0.00 0.00 0.00 29 5318.5
20260901193925 235 337 3.0 3.0 0.00 0.00 0.00 29 5318.5
20260901193723 196 292 2.0 2.0 0.00 0.00 0.00 29 5318.5
20260901193521 290 292 1.0 2.0 0.00 0.00 0.00 29 5318.5
20260901193318 251 292 1.0 2.0 0.00 0.00 0.00 29 5318.5
20260901192713 715 337 1.0 2.0 0.00 0.00 0.00 28 4420.8
20260901192511 715 337 1.0 2.0 0.00 0.00 0.00 28 1799.4
20260901192308 -19 337 1.0 2.0 0.00 0.00 0.00 28 5318.5
20260901191702 715 337 2.0 2.0 0.00 0.00 0.00 27 1799.3
20260901191500 715 337 1.0 3.0 0.00 0.00 0.00 28 1799.4
20260901191258 -12 315 2.0 3.0 0.00 0.00 0.00 28 5318.5
20260901190651 216 315 0.0 2.0 0.00 0.00 0.00 27 5318.5
20260901190247 768 315 2.0 3.0 0.00 0.00 0.00 26 5318.5
20260901190045 170 315 2.0 2.0 0.00 0.00 0.00 26 5318.5
20260901185843 715 315 1.0 2.0 0.00 0.00 0.00 26 4420.8
20260901185641 226 315 0.0 0.0 0.00 0.00 0.00 27 5318.5
20260901185440 187 315 0.0 0.0 0.00 0.00 0.00 26 5318.5
20260901185237 281 315 0.0 1.0 0.00 0.00 0.00 26 403.3
20260901185035 242 315 0.0 1.0 0.00 0.00 0.00 26 5318.5
20260901184833 -31 270 0.0 1.0 0.00 0.00 0.00 25 5318.5
20260901184631 715 270 0.0 1.0 0.00 0.00 0.00 25 1799.4
20260901184232 -30 270 1.0 2.0 0.00 0.00 0.00 25 5318.5
20260901184025 -20 270 1.0 2.0 0.00 0.00 0.00 25 5318.5
20260901183823 715 270 1.0 3.0 0.00 0.00 0.00 25 1799.4
20260901183626 -15 270 1.0 3.0 0.00 0.00 0.00 24 5318.5
20260901183419 -19 270 2.0 3.0 0.00 0.00 0.00 24 5318.5
20260901183218 -98 270 2.0 3.0 0.00 0.00 0.00 24 5318.5
20260901183014 -13 270 3.0 3.0 0.00 0.00 0.00 24 5318.5
20260901182812 -42 270 2.0 3.0 0.00 0.00 0.00 23 5318.5
20260901182610 715 270 2.0 6.0 0.00 0.00 0.00 23 4420.7
20260901182209 106 270 4.0 7.0 0.00 0.00 0.00 22 5318.5
20260901182004 715 315 4.0 10.0 0.00 0.00 0.00 21 1799.3
20260901181802 161 315 7.0 10.0 0.00 0.00 0.00 22 5318.5
20260901181600 122 315 8.0 8.0 0.00 0.00 0.00 23 5318.5
20260901181433 178 315 0.0 1.0 0.00 0.00 0.00 22 5318.5
20260901181156 178 315 0.0 1.0 0.00 0.00 0.00 22 5318.5
20260901180752 233 270 1.0 1.0 0.00 0.00 0.00 21 5318.5
20260901180549 715 270 1.0 1.0 0.00 0.00 0.00 21 1799.4
20260901180348 288 315 1.0 1.0 0.00 0.00 0.00 21 5318.5
20260901175540 32 270 1.0 1.0 0.00 0.00 0.00 20 5318.5
20260901175338 -16 315 1.0 2.0 0.00 0.00 0.00 20 5318.5
20260901174935 -10 270 1.0 2.0 0.00 0.00 0.00 20 5318.5
20260901174529 -52 270 2.0 3.0 0.00 0.00 0.00 20 5318.5
20260901174327 -90 270 2.0 3.0 0.00 0.00 0.00 20 5318.5
20260901173922 973 270 2.0 3.0 0.00 0.00 0.00 20 5318.5
20260901173720 584 270 2.0 3.0 0.00 0.00 0.00 19 5318.5
20260901173518 152 270 3.0 3.0 0.00 0.00 0.00 20 5318.5
20260901173317 113 270 2.0 3.0 0.00 0.00 0.00 20 5318.5
20260901172912 715 270 1.0 3.0 0.00 0.00 0.00 19 1799.3
20260901172710 49 270 3.0 4.0 0.00 0.00 0.00 18 5318.5
20260901172508 715 270 2.0 4.0 0.00 0.00 0.00 19 1799.4
20260901172307 -31 270 4.0 4.0 0.00 0.00 0.00 18 5318.5
20260901171700 49 270 2.0 2.0 0.00 0.00 0.00 18 5318.5
20260901171458 -22 270 1.0 2.0 0.00 0.00 0.00 18 5318.5
20260901171258 -26 270 2.0 3.0 0.00 0.00 0.00 17 5318.5
20260901170854 -21 270 2.0 3.0 0.00 0.00 0.00 17 5318.5
20260901170649 -11 270 2.0 3.0 0.00 0.00 0.00 18 5318.5
20260901170246 -31 270 3.0 3.0 0.00 0.00 0.00 17 5318.5
20260901170043 -10 270 2.0 4.0 0.00 0.00 0.00 17 5318.5
20260901165639 881 270 1.0 4.0 0.00 0.00 0.00 17 5318.5
20260901165236 714 270 3.0 4.0 0.00 0.00 0.00 17 4420.7
20260901165033 104 270 2.0 3.0 0.00 0.00 0.00 17 5318.5
20260901164832 198 270 3.0 3.0 0.00 0.00 0.00 16 5318.5
20260901164629 159 270 2.0 6.0 0.00 0.00 0.00 16 5318.5
20260901164427 253 270 4.0 6.0 0.00 0.00 0.00 16 5318.5
20260901164027 308 270 2.0 4.0 0.00 0.00 0.00 16 5318.5
20260901163822 270 292 3.0 4.0 0.00 0.00 0.00 16 5318.5
20260901163619 715 315 1.0 7.0 0.00 0.00 0.00 14 1799.3
20260901163416 -31 315 4.0 7.0 0.00 0.00 0.00 14 5318.5
20260901163215 -23 315 5.0 7.0 0.00 0.00 0.00 14 5318.5
20260901163012 -27 303 4.0 9.0 0.00 0.00 0.00 14 5318.5
20260901162608 -21 315 10.0 10.0 0.00 0.00 0.00 14 5318.5
20260901161800 715 315 6.0 9.0 0.00 0.00 0.00 15 1799.4
20260901161357 789 270 5.0 11.0 0.00 0.00 0.00 15 5318.5
20260901161158 400 315 6.0 11.0 0.00 0.00 0.00 15 5318.5
20260901160750 715 315 5.0 8.0 0.00 0.00 0.00 16 1799.4
20260901160548 189 315 5.0 7.0 0.00 0.00 0.00 16 5318.5
20260901155941 715 315 4.0 9.0 0.00 0.00 0.00 16 4420.6
20260901155739 299 292 4.0 9.0 0.00 0.00 0.00 15 5318.5
20260901155538 260 315 5.0 5.0 0.00 0.00 0.00 16 5318.5
20260901155338 -30 315 4.0 8.0 0.00 0.00 0.00 16 5318.5
20260901154527 715 315 7.0 7.0 0.00 0.00 0.00 15 1799.3
20260901154325 -22 292 5.0 7.0 0.00 0.00 0.00 15 5318.5
20260901153920 -17 315 9.0 11.0 0.00 0.00 0.00 16 5318.5
20260901153718 715 315 7.0 10.0 0.00 0.00 0.00 16 1799.3
20260901153314 -24 292 3.0 9.0 0.00 0.00 0.00 15 5318.5
20260901152911 308 315 5.0 9.0 0.00 0.00 0.00 16 5318.5
20260901152708 124 292 8.0 9.0 0.00 0.00 0.00 16 5318.5
20260901152306 180 270 6.0 9.0 0.00 0.00 0.00 16 5318.5
20260901151658 196 315 7.0 11.0 0.00 0.00 0.00 17 5318.5
20260901151253 251 315 8.0 10.0 0.00 0.00 0.00 17 5318.5
20260901150644 -26 315 3.0 5.0 0.00 0.00 0.00 18 5318.5
20260901150442 -30 315 5.0 5.0 0.00 0.00 0.00 19 5318.5
20260901150240 -21 315 1.0 3.0 0.00 0.00 0.00 20 5318.5
20260901150039 -25 270 1.0 6.0 0.00 0.00 0.00 20 5318.5
20260901145635 -19 270 2.0 7.0 0.00 0.00 0.00 20 5318.5
20260901145434 -10 270 3.0 7.0 0.00 0.00 0.00 20 5318.5
20260901145230 -14 270 3.0 6.0 0.00 0.00 0.00 20 5318.5
20260901145028 -31 270 4.0 7.0 0.00 0.00 0.00 20 5318.5
20260901144826 -86 315 5.0 7.0 0.00 0.00 0.00 20 5318.5
20260901144624 78 315 3.0 5.0 0.00 0.00 0.00 21 5318.5
20260901144424 101 315 4.0 9.0 0.00 0.00 0.00 21 5318.5
20260901144219 630 270 6.0 9.0 0.00 0.00 0.00 20 5318.5
20260901144018 157 315 9.0 9.0 0.00 0.00 0.00 21 5318.5
20260901143816 118 315 1.0 12.0 0.00 0.00 0.00 20 5318.5
20260901143232 -29 315 5.0 10.0 0.00 0.00 0.00 21 5318.5
20260901142825 -24 315 8.0 13.0 0.00 0.00 0.00 21 5318.5
20260901142623 -27 315 10.0 13.0 0.00 0.00 0.00 21 5318.5
20260901142423 -18 270 8.0 8.0 0.00 0.00 0.00 22 403.3
20260901142219 -22 270 5.0 9.0 0.00 0.00 0.00 22 5318.5
20260901142017 -13 315 9.0 12.0 0.00 0.00 0.00 22 5318.5
20260901141859 49 315 9.0 12.0 0.00 0.00 0.00 22 5318.5
20260901141815 49 315 9.0 12.0 0.00 0.00 0.00 22 5318.5
20260901141613 -75 315 12.0 12.0 0.00 0.00 0.00 23 5318.5
20260901141413 -11 270 6.0 7.0 0.00 0.00 0.00 23 5318.5
20260901141208 715 315 6.0 8.0 0.00 0.00 0.00 23 1799.1
20260901141010 714 315 5.0 8.0 0.00 0.00 0.00 23 4420.7
20260901140604 129 303 7.0 10.0 0.00 0.00 0.00 22 5318.5
20260901140400 906 270 6.0 10.0 0.00 0.00 0.00 22 5318.5
20260901140159 715 270 8.0 9.0 0.00 0.00 0.00 22 4420.6
20260901135956 32 270 9.0 12.0 0.00 0.00 0.00 22 5320.2
20260901135350 295 270 11.0 15.0 0.00 0.00 0.00 21 5318.5
20260901135148 715 270 12.0 15.0 0.00 0.00 0.00 22 4421.0
20260901134947 -30 270 10.0 12.0 0.00 0.00 0.00 22 5318.5
20260901134745 715 270 7.0 11.0 0.00 0.00 0.00 22 1799.3
20260901134338 -30 270 8.0 14.0 0.00 0.00 0.00 23 5318.5
20260901133734 -15 315 12.0 12.0 0.00 0.00 0.00 22 5318.5
20260901133528 -19 315 6.0 8.0 0.00 0.00 0.00 23 5318.5
20260901133326 715 315 7.0 8.0 0.00 0.00 0.00 22 1799.1
20260901132720 -81 315 8.0 10.0 0.00 0.00 0.00 23 5318.5
20260901132518 124 315 8.0 9.0 0.00 0.00 0.00 22 5318.5
20260901132316 106 315 5.0 11.0 0.00 0.00 0.00 22 4010.3
20260901131912 161 270 9.0 9.0 0.00 0.00 0.00 23 5318.5
20260901131709 715 315 5.0 9.0 0.00 0.00 0.00 23 1799.4
20260901131507 216 292 6.0 10.0 0.00 0.00 0.00 23 5318.5
20260901131305 178 315 3.0 10.0 0.00 0.00 0.00 23 5318.5
20260901130654 715 315 10.0 10.0 0.00 0.00 0.00 24 1799.3
20260901130250 -29 315 10.0 10.0 0.00 0.00 0.00 24 5318.5
20260901125644 715 315 10.0 10.0 0.00 0.00 0.00 25 1799.3
20260901125240 -22 315 7.0 9.0 0.00 0.00 0.00 25 5318.5
20260901125039 715 315 6.0 9.0 0.00 0.00 0.00 25 4420.8
20260901124836 715 270 8.0 15.0 0.00 0.00 0.00 25 1799.4
20260901124636 -75 315 14.0 15.0 0.00 0.00 0.00 25 5318.5
20260901124230 -19 315 5.0 9.0 0.00 0.00 0.00 26 5318.5
20260901124027 49 315 6.0 8.0 0.00 0.00 0.00 25 5318.5
20260901123219 184 315 15.0 15.0 0.00 0.00 0.00 26 5318.5
20260901122653 -27 315 8.0 11.0 0.00 0.00 0.00 27 5318.5
20260901122451 -17 315 11.0 13.0 0.00 0.00 0.00 27 5318.5
20260901122249 -21 292 11.0 13.0 0.00 0.00 0.00 27 5318.5
20260901122048 -12 315 6.0 10.0 0.00 0.00 0.00 27 5318.5
20260901121845 -15 292 9.0 15.0 0.00 0.00 0.00 27 5318.5
20260901121643 -65 315 9.0 15.0 0.00 0.00 0.00 27 5318.5
20260901121318 173 303 7.0 10.0 0.00 0.00 0.00 27 403.3
20260901121116 267 315 8.0 9.0 0.00 0.00 0.00 28 403.3
20260901120712 -31 315 8.0 9.0 0.00 0.00 0.00 28 5318.5
20260901120510 283 292 9.0 10.0 0.00 0.00 0.00 28 5318.5
20260901120308 715 315 5.0 15.0 0.00 0.00 0.00 28 4420.6
20260901115702 -26 315 6.0 9.0 0.00 0.00 0.00 28 4010.3
20260901115500 -31 315 4.0 9.0 0.00 0.00 0.00 28 5318.5
20260901115258 -20 315 5.0 12.0 0.00 0.00 0.00 28 5318.5
20260901114854 715 303 8.0 13.0 0.00 0.00 0.00 28 4420.7
20260901114651 -56 315 11.0 12.0 0.00 0.00 0.00 29 5318.5
20260901114449 -95 315 5.0 15.0 0.00 0.00 0.00 28 5318.5
20260901114246 715 315 11.0 15.0 0.00 0.00 0.00 28 1799.4
20260901114048 927 315 15.0 15.0 0.00 0.00 0.00 29 5318.5
20260901113942 -32 292 6.0 11.0 0.00 0.00 0.00 29 5318.5
20260901113741 -23 292 9.0 11.0 0.00 0.00 0.00 30 5318.5
20260901113539 -27 315 8.0 10.0 0.00 0.00 0.00 29 5318.5
20260901112936 715 337 9.0 11.0 0.00 0.00 0.00 30 4420.6
20260901112527 -65 315 8.0 12.0 0.00 0.00 0.00 30 5318.5
20260901111720 446 315 8.0 10.0 0.00 0.00 0.00 30 5318.5
20260901111316 715 303 6.0 9.0 0.00 0.00 0.00 32 4420.6
20260901111114 193 315 8.0 12.0 0.00 0.00 0.00 31 5318.5
20260901110708 249 315 12.0 12.0 0.00 0.00 0.00 31 5318.5
20260901110507 210 315 4.0 12.0 0.00 0.00 0.00 31 5318.5
20260901110306 304 292 8.0 12.0 0.00 0.00 0.00 31 5318.5
20260901110107 265 315 5.0 12.0 0.00 0.00 0.00 30 5318.5
20260901105902 -29 315 7.0 15.0 0.00 0.00 0.00 31 5318.5
20260901105658 320 315 6.0 15.0 0.00 0.00 0.00 31 5318.5
20260901105548 -10 315 15.0 15.0 0.00 0.00 0.00 31 5318.5
20260901105405 175 315 6.0 12.0 0.00 0.00 0.00 31 5318.5
20260901105203 136 292 7.0 12.0 0.00 0.00 0.00 31 5318.5
20260901105001 49 315 8.0 10.0 0.00 0.00 0.00 32 5318.5
20260901104758 191 315 5.0 8.0 0.00 0.00 0.00 32 5318.5
20260901104558 285 292 8.0 10.0 0.00 0.00 0.00 32 5318.5
20260901104354 247 315 7.0 14.0 0.00 0.00 0.00 32 5318.5
20260901103950 302 292 11.0 12.0 0.00 0.00 0.00 32 5318.5
20260901103749 -25 315 8.0 13.0 0.00 0.00 0.00 32 5318.5
20260901103547 -29 315 4.0 13.0 0.00 0.00 0.00 32 403.4
20260901103146 -24 292 10.0 12.0 0.00 0.00 0.00 32 5318.5
20260901102537 715 315 10.0 11.0 0.00 0.00 0.00 33 4420.9
20260901101728 170 303 6.0 9.0 0.00 0.00 0.00 33 5318.5
20260901101529 111 315 9.0 11.0 0.00 0.00 0.00 33 5318.5
20260901101326 722 303 8.0 11.0 0.00 0.00 0.00 33 5318.5
20260901100718 221 292 9.0 11.0 0.00 0.00 0.00 33 5318.5
20260901100516 182 315 5.0 11.0 0.00 0.00 0.00 33 5318.5
20260901095708 714 303 8.0 11.0 0.00 0.00 0.00 31 4420.7
20260901095506 -31 315 9.0 13.0 0.00 0.00 0.00 32 5318.5
20260901095306 -30 315 9.0 13.0 0.00 0.00 0.00 31 5318.5
20260901095104 -21 315 10.0 12.0 0.00 0.00 0.00 31 5318.5
20260901094900 -25 315 10.0 12.0 0.00 0.00 0.00 31 5318.5
20260901094455 -19 315 11.0 12.0 0.00 0.00 0.00 31 5318.5
20260901094253 -10 315 6.0 12.0 0.00 0.00 0.00 31 5318.5
20260901093850 -47 303 8.0 12.0 0.00 0.00 0.00 31 5318.5
20260901093041 715 315 6.0 10.0 0.00 0.00 0.00 30 4420.8
20260901092434 212 315 10.0 11.0 0.00 0.00 0.00 30 5318.5
20260901092239 173 292 8.0 10.0 0.00 0.00 0.00 29 5318.5
20260901092030 267 337 5.0 14.0 0.00 0.00 0.00 30 5318.5
20260901091829 228 303 7.0 14.0 0.00 0.00 0.00 29 5318.5
20260901091626 32 315 9.0 11.0 0.00 0.00 0.00 30 5318.5
20260901091223 715 315 10.0 10.0 0.00 0.00 0.00 31 1799.1
20260901090820 715 315 6.0 7.0 0.00 0.00 0.00 31 1799.3
20260901090510 49 315 5.0 7.0 0.00 0.00 0.00 32 5318.5
20260901090414 49 315 5.0 7.0 0.00 0.00 0.00 32 5318.5
20260901090212 -20 315 3.0 8.0 0.00 0.00 0.00 31 5318.5
20260901090010 -11 315 6.0 9.0 0.00 0.00 0.00 31 5318.5
20260901085201 -14 315 5.0 6.0 0.00 0.00 0.00 32 5318.5
20260901084959 714 315 2.0 6.0 0.00 0.00 0.00 31 4421.0
20260901084353 109 315 3.0 6.0 0.00 0.00 0.00 31 5318.5
20260901084151 42 0 4.0 5.0 0.00 0.00 0.00 31 5318.5
20260901083949 164 326 4.0 5.0 0.00 0.00 0.00 31 5318.5
20260901083545 219 315 3.0 5.0 0.00 0.00 0.00 32 1714.1
20260901083144 274 292 3.0 6.0 0.00 0.00 0.00 32 5318.5
20260901082739 -32 315 6.0 6.0 0.00 0.00 0.00 32 5318.5
20260901081525 715 315 3.0 4.0 0.00 0.00 0.00 33 1799.4
20260901080716 835 315 3.0 5.0 0.00 0.00 0.00 33 5318.5
20260901080514 446 315 4.0 5.0 0.00 0.00 0.00 33 5318.5
20260901080312 138 315 4.0 4.0 0.00 0.00 0.00 33 5318.5
20260901075503 249 315 4.0 4.0 0.00 0.00 0.00 35 5318.5
20260901074656 -29 315 5.0 6.0 0.00 0.00 0.00 35 5318.5
20260901074251 -24 315 4.0 4.0 0.00 0.00 0.00 36 403.4
20260901074051 -27 315 3.0 4.0 0.00 0.00 0.00 36 5318.5
20260901073847 -18 315 3.0 5.0 0.00 0.00 0.00 36 5318.5
20260901073240 -19 315 2.0 3.0 0.00 0.00 0.00 38 5318.5
20260901073034 -98 315 3.0 3.0 0.00 0.00 0.00 39 5318.5
20260901072428 -81 315 1.0 3.0 0.00 0.00 0.00 40 5318.5
20260901072025 106 315 3.0 4.0 0.00 0.00 0.00 40 5318.5
20260901071821 676 315 3.0 4.0 0.00 0.00 0.00 40 5318.5
20260901071620 161 315 4.0 4.0 0.00 0.00 0.00 41 5318.5
20260901071215 216 315 3.0 3.0 0.00 0.00 0.00 40 5318.5
20260901071013 178 337 2.0 3.0 0.00 0.00 0.00 41 5318.5
20260901070814 272 315 1.0 2.0 0.00 0.00 0.00 41 5318.5
20260901070205 49 315 1.0 2.0 0.00 0.00 0.00 44 5318.5
20260901070003 -27 315 1.0 123.0 0.00 0.00 0.00 44 5318.5
20260901065659 715 292 123.0 123.0 0.00 0.00 0.00 43 4420.8
20260901065614 247 292 0.0 0.0 0.00 0.00 0.00 43 5318.5
20260901065209 302 236 1.0 1.0 0.00 0.00 0.00 43 5318.5
20260901064802 715 225 1.0 124.0 0.00 0.00 0.00 44 1799.3
20260901064701 584 225 124.0 124.0 0.00 0.00 0.00 44 5318.5
20260901064529 -90 225 1.0 2.0 0.00 0.00 0.00 45 5318.5
20260901063924 584 236 1.0 1.0 0.00 0.00 0.00 46 5318.5
20260901063609 32 348 2.0 3.0 0.00 0.00 0.00 47 5318.5
20260901063205 584 337 2.0 2.0 0.00 0.00 0.00 47 5318.5
20260901062822 -27 337 2.0 126.0 0.00 0.00 0.00 47 5318.5
20260901062620 -31 292 2.0 126.0 0.00 0.00 0.00 47 5318.5
20260901061846 216 225 2.0 2.0 0.00 0.00 0.00 49 5318.5
20260901061442 32 225 1.0 2.0 0.00 0.00 0.00 49 5318.5
20260901061240 233 292 2.0 2.0 0.00 0.00 0.00 48 5318.5
20260901061038 327 292 1.0 2.0 0.00 0.00 0.00 49 5318.5
20260901060836 288 247 1.0 1.0 0.00 0.00 0.00 50 5318.5
20260901060637 -27 225 1.0 126.0 0.00 0.00 0.00 47 5318.5
20260901060432 -31 225 2.0 126.0 0.00 0.00 0.00 50 5318.5
20260901060229 -90 247 1.0 2.0 0.00 0.00 0.00 50 1714.1
20260901060028 32 225 2.0 3.0 0.00 0.00 0.00 50 5318.5
20260901055623 715 225 3.0 3.0 0.00 0.00 0.00 51 488.7
20260901055423 288 225 3.0 4.0 0.00 0.00 0.00 50 5318.5
20260901054917 715 337 127.0 127.0 0.00 0.00 0.00 50 1799.4
20260901054748 -90 337 3.0 4.0 0.00 0.00 0.00 51 5318.5
20260901054545 32 337 3.0 3.0 0.00 0.00 0.00 50 5318.5
20260901054141 49 337 2.0 2.0 0.00 0.00 0.00 51 5318.5
20260901053520 -31 337 3.0 127.0 0.00 0.00 0.00 51 5318.5
20260901053418 584 337 127.0 127.0 0.00 0.00 0.00 51 5318.5
20260901053336 327 337 2.0 4.0 0.00 0.00 0.00 51 5318.5
20260901052934 49 292 3.0 127.0 0.00 0.00 0.00 50 5318.5
20260901052628 714 315 127.0 127.0 0.00 0.00 0.00 51 4420.7
20260901052512 32 315 4.0 5.0 0.00 0.00 0.00 51 5318.5
20260901051807 247 292 5.0 5.0 0.00 0.00 0.00 51 5318.5
20260901051157 -27 337 3.0 128.0 0.00 0.00 0.00 51 5318.5
20260901050700 715 337 4.0 4.0 0.00 0.00 0.00 51 4420.8
20260901050456 288 225 3.0 4.0 0.00 0.00 0.00 51 5318.5
20260901045951 584 348 127.0 127.0 0.00 0.00 0.00 51 5318.5
20260901045638 288 225 3.0 4.0 0.00 0.00 0.00 51 5321.1
20260901045433 -27 337 2.0 127.0 0.00 0.00 0.00 51 5318.5
20260901045233 -31 225 2.0 127.0 0.00 0.00 0.00 51 5318.5
20260901045132 584 337 127.0 127.0 0.00 0.00 0.00 50 5318.5
20260901044903 327 337 5.0 5.0 0.00 0.00 0.00 50 5318.5
20260901044706 715 337 5.0 6.0 0.00 0.00 0.00 51 1799.4
20260901044459 715 348 4.0 130.0 0.00 0.00 0.00 51 1799.4
20260901044156 584 337 130.0 130.0 0.00 0.00 0.00 51 5318.5
20260901044037 288 348 4.0 7.0 0.00 0.00 0.00 49 5318.5
20260901043534 715 337 128.0 128.0 0.00 0.00 0.00 50 1799.4
20260901043105 -27 292 6.0 128.0 0.00 0.00 0.00 51 5318.5
20260901042639 327 337 5.0 6.0 0.00 0.00 0.00 51 5318.5
20260901042034 -31 315 6.0 130.0 0.00 0.00 0.00 50 5318.5
20260901041928 584 326 130.0 130.0 0.00 0.00 0.00 51 5318.5
20260901041655 288 315 6.0 7.0 0.00 0.00 0.00 50 5318.5
20260901041147 584 315 129.0 129.0 0.00 0.00 0.00 50 1714.1
20260901040843 32 337 7.0 8.0 0.00 0.00 0.00 50 5318.5
20260901040641 715 225 7.0 8.0 0.00 0.00 0.00 50 1799.4
20260901040439 584 348 7.0 7.0 0.00 0.00 0.00 50 5318.5
20260901040130 32 225 5.0 7.0 0.00 0.00 0.00 49 5318.5
20260901035726 715 292 6.0 6.0 0.00 0.00 0.00 50 1799.4
20260901035611 715 315 6.0 6.0 0.00 0.00 0.00 50 1799.3
20260901035409 288 292 6.0 6.0 0.00 0.00 0.00 50 5318.5
20260901034903 584 258 129.0 129.0 0.00 0.00 0.00 48 5318.5
20260901034645 327 292 6.0 6.0 0.00 0.00 0.00 50 5318.5
20260901034439 288 292 5.0 6.0 0.00 0.00 0.00 49 5318.5
20260901034237 -27 337 5.0 127.0 0.00 0.00 0.00 50 5318.5
20260901033935 715 292 127.0 127.0 0.00 0.00 0.00 50 4420.8
20260901033640 288 0 0.0 0.0 0.00 0.00 0.00 50 5318.5
20260901033439 49 292 0.0 124.0 0.00 0.00 0.00 50 5318.5
20260901033135 584 292 124.0 124.0 0.00 0.00 0.00 49 5318.5
20260901032743 288 315 0.0 4.0 0.00 0.00 0.00 49 4010.3
20260901032538 -27 292 3.0 126.0 0.00 0.00 0.00 49 5318.5
20260901032340 -31 348 3.0 126.0 0.00 0.00 0.00 49 5318.5
20260901032235 584 281 126.0 126.0 0.00 0.00 0.00 49 5318.5
20260901032155 -52 292 2.0 3.0 0.00 0.00 0.00 49 5318.5
20260901031751 32 292 3.0 3.0 0.00 0.00 0.00 48 5318.5
20260901031322 327 315 2.0 3.0 0.00 0.00 0.00 48 5318.5
20260901030918 -27 292 3.0 126.0 0.00 0.00 0.00 48 5318.5
20260901030717 -31 281 2.0 126.0 0.00 0.00 0.00 47 5318.5
20260901030523 327 303 3.0 3.0 0.00 0.00 0.00 48 5318.5
20260901030322 715 315 2.0 3.0 0.00 0.00 0.00 48 4420.8
20260901025749 -52 337 1.0 2.0 0.00 0.00 0.00 47 5318.5
20260901025549 -90 315 0.0 1.0 0.00 0.00 0.00 47 5318.5
20260901024943 715 337 1.0 1.0 0.00 0.00 0.00 47 4420.8
20260901024821 -90 225 1.0 1.0 0.00 0.00 0.00 47 5318.5
20260901024618 32 225 0.0 1.0 0.00 0.00 0.00 47 5318.5
20260901024415 973 225 0.0 0.0 0.00 0.00 0.00 47 5318.5